User: anonymous
Location: Vancouver
(49.2500°N, 123.1330°W)
Time: 02:41:31
(UTC-07:00)
Language:

H-2A R/B - Orbit

View from above orbital plane
View from above orbital plane
View from above satellite
View from above satellite

Ground track
Ground track

The orbit data is extracted from the following two-line orbital elements,

1 27601U 02056E   14260.80229720  .00000175  00000-0  79787-4 0  1821
2 27601 098.4780 341.3024 0072640 026.5092 080.8219 14.31411016614241
Epoch (UTC): 17 September 2014 19:15:18
Eccentricity: 0.0072640
inclination: 98.4780°
perigee height: 735 km
apogee height: 839 km
right ascension of ascending node: 341.3024°
argument of perigee: 26.5092°
revolutions per day: 14.31411016
mean anomaly at epoch: 80.8219°
orbit number at epoch: 61424

The dashed part of the orbit path shows where the satellite is in the earth's shadow,  

DLR